Zurück zum Katalog

STARLINK-5711

AktivKommunikationVLEO
NORAD 55471·PAYLOAD·🇺🇸 United States

Gestartet Feb 2, 2023 von Cape Canaveral Space Force Station

Loading…

Nächste Überflüge (nächste 24 Stunden)

TLE

AktuellSource: CelesTrak SupGP

Epoche: Sep 14, 2026, 21:06 UTC

1 55471C 23015Y   26257.87965278 -.00050000  00000+0 -18108-2 0  2570
2 55471  43.0021 340.0462 0001646 265.9519 281.5678 15.27606817    18

Verfolge STARLINK-5711 in Echtzeit mit AllMySat

Download on the App Store